Temperature
23 22 22 22 21 21 21 20 20 20 20 19 19 19 19 19 19 18 18 18 18 18 18 18 18 18 18 18 18 18 18 18 18 17 17 17 17 17 17 17 17 16 16
23 22 22 22 22 21 21 21 20 20 20 20 19 19 19 19 19 18 18 18 18 18 18 18 18 18 18 18 18 18 18 18 17 17 17 16 16 16 16 16 16 16 16
24 23 23 22 22 22 21 21 21 20 20 20 19 19 19 19 19 19 19 18 18 18 18 18 18 18 18 18 18 17 17 17 17 17 17 16 16 16 16 16 16 16 16
24 24 23 23 23 22 22 21 21 21 20 20 20 19 19 19 19 19 19 18 18 18 18 18 18 18 18 18 18 17 17 17 17 17 17 16 16 16 16 15 16 15 15
25 24 24 24 23 23 22 22 21 21 20 20 20 20 19 19 19 19 19 19 18 18 18 18 18 18 18 18 17 17 17 17 17 17 16 16 16 16 16 15 15 15 15
25 25 24 24 23 23 22 22 21 21 21 20 20 20 20 19 19 19 19 19 18 18 18 18 18 18 18 17 17 17 17 17 17 16 16 16 16 16 16 16 15 15 15
25 25 24 24 24 23 23 22 22 22 21 21 20 20 20 20 19 19 19 19 19 18 18 18 18 18 18 17 17 17 17 17 16 16 16 16 16 16 16 16 15 15 14
25 25 25 25 25 24 24 23 22 22 22 21 21 20 20 20 20 19 19 19 19 19 18 18 18 18 18 17 17 17 17 17 16 16 16 16 16 16 16 16 15 15 14
26 25 25 25 25 24 24 23 23 23 22 22 21 21 20 20 20 20 19 19 19 19 18 18 18 18 17 17 17 17 17 17 16 16 16 16 16 16 16 15 15 15 14
26 25 25 25 25 25 24 24 23 23 22 22 21 21 21 20 20 20 20 19 19 19 18 18 18 18 17 17 17 17 17 16 16 16 16 16 16 16 15 15 15 15 15
26 25 26 25 25 25 24 24 24 23 22 22 22 21 21 20 20 20 20 19 19 18 18 18 18 18 17 17 17 16 16 16 16 16 16 16 15 15 15 15 15 15 14
26 26 26 25 25 25 24 24 24 23 23 22 22 21 21 21 20 20 20 19 19 18 18 18 18 17 17 17 16 16 16 16 16 16 16 15 15 15 15 15 15 14 14
25 25 25 25 25 25 24 24 24 23 23 22 22 21 21 21 20 20 20 19 19 19 18 18 18 17 17 17 16 16 16 16 16 15 15 15 15 15 15 15 15 14 14
25 25 25 25 25 24 24 24 24 23 23 22 22 21 21 21 20 20 20 19 19 19 18 18 18 17 17 17 16 16 16 16 15 15 15 15 15 15 15 15 14 14 14
24 25 25 25 25 24 24 24 24 23 23 22 22 22 21 21 20 20 20 19 19 19 18 18 18 17 17 17 16 16 16 15 15 15 15 15 15 15 15 14 14 14 14
24 24 25 25 25 25 24 24 24 23 23 22 22 21 21 21 20 20 20 19 19 18 18 18 18 17 17 17 16 16 16 15 15 15 15 15 15 14 14 14 14 14 14
23 24 24 24 24 24 24 24 23 23 22 22 21 21 21 20 20 20 19 19 19 18 18 18 18 17 17 17 16 16 15 15 15 15 15 15 14 14 14 14 14 14 14
23 23 23 24 24 24 23 23 23 22 22 22 21 21 20 20 20 19 19 19 18 18 18 18 17 17 17 16 16 16 15 15 15 15 15 14 14 14 14 14 14 14 14
23 23 23 23 23 23 23 23 23 22 22 22 21 21 20 20 20 19 19 19 18 18 18 18 17 17 17 16 16 15 15 15 15 15 14 14 14 14 14 14 14 14 13
22 23 23 23 23 23 22 22 22 22 22 21 21 21 20 20 20 19 19 18 18 18 17 17 17 17 16 16 16 15 15 15 15 14 14 14 14 14 13 13 13 13 13
22 22 22 22 22 22 22 22 22 22 21 21 20 20 20 19 19 19 18 18 18 17 17 17 17 16 16 16 16 15 15 15 14 14 14 14 14 13 13 13 13 13 13
22 22 22 22 22 22 21 21 21 21 21 20 20 19 19 19 19 18 18 18 17 17 17 17 16 16 16 16 15 15 15 14 14 14 14 14 13 13 13 13 13 13 12
21 21 21 21 21 21 21 21 21 20 20 20 19 19 19 18 18 18 18 17 17 17 16 16 16 16 16 15 15 15 15 14 14 14 14 13 13 13 13 13 12 12 12
20 20 20 20 20 20 20 20 20 19 19 19 19 18 18 18 18 17 17 17 17 16 16 16 16 16 16 15 15 15 15 14 14 14 14 13 13 13 13 12 12 12 12
19 19 20 19 19 19 19 19 19 19 19 19 18 18 18 17 17 17 17 17 17 16 16 16 15 15 15 15 15 15 15 14 14 13 13 13 13 13 13 13 12 12 12
19 19 19 19 18 18 18 18 19 18 18 18 18 17 17 16 16 16 16 16 16 15 15 15 15 15 15 15 14 14 14 14 13 13 13 13 13 13 13 12 12 12 12
Wind_Speed
8 7 7 7 6 6 6 6 6 5 4 2 2 2 1 0 0 1 2 2 3 3 3 2 1 2 2 2 2 2 2 2 2 2 2 2 2 2 1 1 0 0 1
6 7 7 7 8 8 7 6 7 6 5 3 3 2 2 1 1 0 0 1 2 3 3 3 2 2 2 1 2 3 2 1 2 2 1 0 1 2 2 1 1 0 1
11 10 10 9 9 9 9 8 7 7 6 5 3 2 2 2 1 1 0 0 1 2 2 2 2 1 2 2 2 3 3 2 2 2 2 2 2 0 1 1 1 1 1
11 10 11 10 11 11 9 8 7 7 6 6 5 5 3 2 2 1 1 0 1 1 2 2 2 1 1 2 2 2 2 3 2 1 1 1 2 2 1 1 1 2 2
12 13 13 13 11 10 9 8 7 7 6 6 7 5 4 3 1 1 1 0 0 0 1 2 2 2 1 2 2 2 2 2 3 2 2 1 1 1 2 1 0 1 1
12 12 11 10 9 8 8 8 8 7 6 7 7 7 6 5 3 2 2 1 0 0 1 2 2 2 1 2 2 2 2 2 2 2 2 2 2 2 2 2 2 1 0
10 11 12 12 11 10 10 9 9 8 7 7 7 7 7 6 6 5 4 3 2 1 2 2 2 2 2 1 1 1 2 2 2 3 3 3 2 2 3 3 2 1 0
9 11 12 12 12 12 11 10 10 9 8 8 7 6 7 5 5 5 5 4 3 3 3 2 2 2 2 1 1 1 1 1 2 2 2 2 2 2 3 3 4 2 1
9 10 10 11 11 11 12 12 11 9 9 9 8 7 7 6 6 5 5 4 3 3 3 3 2 2 2 2 2 1 1 1 1 2 2 1 1 2 2 3 4 4 2
7 8 9 10 10 10 9 10 10 10 8 8 8 7 7 7 6 5 5 4 4 3 3 3 3 2 2 1 1 1 1 1 1 1 1 1 1 1 2 3 2 2 3
7 7 8 8 8 8 8 9 9 8 7 7 7 6 6 6 5 5 5 5 4 4 4 4 3 3 2 2 1 1 1 1 0 0 1 1 1 1 1 2 2 2 3
5 6 6 7 7 8 8 8 8 8 7 7 6 6 6 6 6 5 5 5 5 4 5 4 4 3 3 2 2 1 1 1 1 0 1 0 1 1 1 2 2 3 3
4 4 5 6 7 8 8 8 8 9 7 7 7 6 6 6 6 6 5 5 5 5 4 4 4 3 3 2 2 2 2 1 1 1 1 1 2 2 2 2 3 3 3
4 5 5 4 5 6 6 7 7 7 7 7 7 8 7 7 7 6 6 6 6 5 5 4 4 4 3 3 2 2 2 1 1 1 1 1 2 2 3 3 3 4 5
3 4 5 5 5 5 5 6 6 7 7 8 8 7 6 6 6 6 6 6 6 6 5 5 4 4 3 3 3 3 3 2 1 0 1 1 2 3 3 3 5 6 5
4 4 4 5 6 6 6 6 6 6 7 8 8 6 6 6 6 6 6 6 5 5 5 5 5 4 4 5 6 4 3 3 2 1 1 1 1 3 3 5 7 8 8
4 3 4 5 6 7 7 7 7 6 7 7 7 6 6 6 6 6 5 6 6 5 5 5 5 5 4 6 6 6 4 3 2 2 1 1 1 2 3 4 6 6 7
4 4 3 2 3 4 5 5 5 7 8 7 7 7 7 7 6 6 6 6 5 5 4 5 5 4 5 6 7 6 4 3 2 2 2 2 2 2 4 4 4 3 4
3 3 2 2 2 4 5 5 5 6 7 7 7 7 7 7 7 7 6 5 5 5 4 4 5 5 4 6 6 6 3 2 2 2 2 2 3 3 5 5 4 3 2
1 2 2 3 2 2 4 6 5 5 6 7 7 7 7 8 8 7 6 5 5 5 5 4 5 5 5 6 7 7 4 3 3 2 2 3 4 4 6 6 5 5 3
1 3 4 3 2 2 5 5 4 5 5 4 5 6 6 7 7 6 5 5 5 4 4 4 4 4 5 6 7 7 5 5 4 3 3 3 4 5 6 6 5 6 5
2 3 4 2 1 2 4 3 3 3 2 3 4 5 6 5 5 5 5 5 5 5 4 4 3 3 4 5 6 8 7 6 5 5 4 4 6 6 6 5 5 6 5
2 3 4 3 1 1 3 3 3 1 3 4 4 4 5 5 5 6 6 5 5 5 4 4 4 4 3 4 6 8 8 7 5 4 5 5 5 5 5 5 6 6 4
2 2 3 2 1 1 0 2 1 2 3 3 3 3 4 5 5 5 5 5 6 6 6 5 6 4 4 4 4 4 5 5 5 4 3 4 5 4 4 4 4 4 5
1 1 2 1 1 2 2 1 1 2 2 2 2 3 4 5 5 4 4 6 6 7 7 7 6 6 6 7 7 6 5 5 5 4 2 2 2 3 3 3 4 4 5
1 1 1 1 1 2 2 2 1 1 2 2 2 2 3 4 4 4 3 4 5 6 8 8 8 6 7 7 7 7 7 7 7 5 3 4 5 6 6 5 5 5 6
Wind_Direction
211 191 183 176 170 172 172 176 172 170 150 139 144 142 180 207 216 205 197 198 202 185 169 172 151 148 161 176 156 145 128 128 125 101 64 40 53 61 52 65 96 179 199
203 190 184 179 182 184 184 184 186 180 173 167 156 153 151 169 192 201 134 184 185 187 180 169 168 159 157 155 160 157 155 168 161 140 128 47 14 32 42 58 81 22 69
202 196 191 191 187 192 194 195 192 187 181 166 133 107 80 55 50 53 41 234 182 174 167 168 167 172 175 180 188 180 175 186 196 180 166 170 203 246 25 39 55 59 48
200 195 195 193 195 201 195 191 187 187 182 167 165 162 167 188 209 190 181 175 156 166 169 167 169 171 174 188 206 188 185 177 194 201 203 190 163 169 170 34 44 53 47
202 198 199 199 198 195 188 187 181 187 183 177 175 172 182 193 177 153 149 128 37 110 169 166 162 176 190 205 203 190 190 187 191 190 178 160 142 160 176 201 173 47 27
205 200 196 191 192 186 182 179 180 192 186 183 182 184 190 188 179 182 184 191 199 249 192 169 165 177 191 207 212 203 199 202 200 202 194 182 179 183 178 191 189 201 3
200 195 189 190 191 186 184 182 184 195 190 188 193 196 196 190 193 196 196 195 199 216 221 197 188 191 198 200 195 195 212 212 211 217 215 209 205 177 167 163 167 175 176
196 196 195 192 191 190 186 185 189 197 192 194 201 200 196 193 200 198 194 198 206 213 202 189 187 183 174 167 160 181 224 212 216 224 215 211 211 185 174 167 159 161 162
192 193 193 192 189 188 190 190 191 197 196 197 197 198 195 196 201 195 191 198 199 191 177 170 165 158 149 155 151 165 218 211 221 221 207 205 217 198 192 176 170 164 179
191 190 191 191 188 187 188 188 191 196 198 196 197 201 198 199 197 188 191 191 188 172 162 161 157 153 153 148 144 163 200 162 230 215 181 202 218 194 181 175 167 166 165
196 195 191 189 180 174 179 184 187 186 189 196 194 191 192 192 186 189 194 186 175 169 168 165 160 158 162 154 146 162 152 146 136 140 169 214 197 163 160 161 155 153 142
193 192 185 175 171 173 180 184 185 186 194 194 189 194 189 183 186 192 190 175 172 172 169 162 163 171 171 156 150 164 149 148 174 177 143 158 138 120 133 148 158 159 153
175 175 172 175 177 179 181 186 190 190 186 182 186 195 192 186 191 191 182 172 169 167 162 163 174 180 173 166 169 173 163 155 161 155 161 181 142 142 146 146 149 151 143
174 171 173 180 175 179 184 188 192 187 175 176 187 195 197 193 194 186 176 173 171 168 170 175 179 181 179 174 175 174 166 153 139 150 194 197 182 183 173 157 147 140 133
181 182 180 181 175 173 185 187 186 182 176 180 190 197 193 187 182 179 175 173 173 176 174 174 177 183 185 188 184 181 178 174 176 173 251 231 203 184 179 169 160 151 144
196 194 180 177 182 187 187 181 185 180 172 184 194 190 182 182 182 182 174 170 173 175 173 181 182 189 201 195 190 181 180 183 189 206 256 279 241 198 189 178 169 163 162
183 188 200 197 196 193 187 187 189 177 177 187 188 184 180 184 186 180 171 177 182 179 180 187 188 199 209 201 196 188 178 178 191 193 205 239 235 190 178 173 172 177 178
182 189 204 206 193 181 180 178 171 174 182 187 187 184 182 185 181 175 180 184 179 182 191 196 199 201 212 197 197 189 177 181 204 207 208 219 234 199 175 167 168 178 186
182 187 185 188 172 164 163 153 161 173 180 188 190 189 185 186 184 188 193 185 179 186 192 193 199 206 219 200 194 182 177 194 227 235 223 215 220 201 174 166 173 183 206
135 135 110 98 106 149 148 149 164 170 191 200 199 193 189 190 193 195 193 186 186 194 191 199 205 208 215 204 193 182 183 200 226 239 236 219 210 194 177 179 178 191 205
107 111 107 111 137 139 137 150 169 197 205 193 189 188 192 196 195 189 184 179 184 186 195 208 217 216 216 213 203 192 195 203 214 228 236 231 208 199 192 189 196 205 190
99 109 112 110 99 120 133 145 205 230 188 174 183 190 192 196 190 182 182 178 180 188 199 210 227 228 219 210 211 207 209 205 210 225 228 223 205 205 204 200 204 191 174
92 99 114 109 75 120 145 176 232 210 169 180 190 198 191 191 189 191 189 186 188 197 206 212 224 235 227 219 215 215 213 208 214 225 222 220 209 204 208 211 198 184 182
82 93 103 107 65 360 198 199 218 174 168 184 196 201 201 199 197 195 193 194 198 202 206 214 224 229 229 228 219 218 214 208 213 225 223 219 212 207 213 208 202 202 201
26 77 120 127 353 342 343 2 85 142 154 175 189 197 207 207 202 201 202 207 214 209 206 213 214 214 229 229 211 204 209 206 205 188 193 212 214 220 224 223 214 206 205
51 35 26 49 19 340 330 323 34 132 165 184 208 213 213 209 205 207 225 229 225 224 218 213 209 221 224 213 207 208 208 200 180 172 207 222 225 227 226 224 225 219 217
Height
1522 1525 1527 1529 1531 1533 1534 1535 1537 1538 1539 1540 1541 1542 1543 1544 1545 1546 1546 1547 1547 1548 1548 1549 1549 1549 1549 1549 1549 1549 1550 1550 1550 1550 1550 1550 1550 1550 1551 1551 1551 1551 1551
1520 1523 1525 1527 1529 1531 1533 1535 1536 1537 1539 1540 1541 1542 1543 1544 1545 1546 1546 1547 1547 1548 1548 1548 1548 1548 1548 1548 1548 1548 1548 1548 1549 1549 1549 1549 1550 1549 1549 1549 1549 1549 1549
1517 1520 1522 1525 1527 1529 1531 1533 1535 1536 1538 1539 1541 1542 1543 1543 1544 1545 1546 1546 1547 1547 1548 1548 1548 1548 1547 1547 1547 1547 1547 1547 1547 1547 1548 1548 1547 1548 1548 1548 1548 1548 1548
1514 1516 1519 1521 1524 1527 1529 1531 1533 1535 1537 1538 1540 1541 1541 1542 1543 1544 1545 1546 1546 1547 1547 1547 1547 1546 1546 1546 1546 1546 1546 1545 1545 1545 1546 1547 1546 1546 1546 1547 1547 1546 1546
1510 1512 1515 1518 1521 1524 1527 1530 1532 1534 1535 1537 1538 1539 1540 1541 1543 1543 1544 1545 1546 1546 1546 1546 1545 1545 1545 1545 1545 1544 1544 1543 1543 1544 1544 1544 1544 1544 1544 1544 1545 1545 1545
1505 1508 1512 1515 1519 1522 1525 1527 1530 1532 1534 1535 1536 1538 1539 1540 1541 1542 1543 1544 1544 1545 1545 1545 1544 1544 1544 1543 1543 1542 1542 1542 1541 1542 1542 1542 1542 1542 1542 1542 1542 1543 1543
1501 1504 1508 1511 1515 1518 1521 1524 1527 1529 1532 1533 1535 1536 1537 1538 1539 1541 1542 1542 1543 1543 1543 1543 1543 1543 1542 1542 1541 1541 1540 1540 1539 1539 1539 1540 1540 1540 1540 1540 1540 1540 1541
1497 1500 1504 1508 1511 1515 1518 1521 1524 1527 1529 1530 1532 1534 1535 1536 1537 1539 1540 1540 1541 1542 1542 1542 1542 1541 1541 1540 1539 1539 1538 1537 1537 1537 1537 1537 1537 1538 1538 1538 1538 1538 1539
1494 1497 1501 1505 1508 1511 1515 1518 1521 1524 1526 1528 1530 1531 1533 1534 1536 1537 1538 1539 1539 1540 1540 1540 1540 1540 1539 1538 1537 1537 1536 1535 1535 1535 1534 1535 1535 1535 1536 1536 1536 1537 1536
1491 1494 1498 1502 1505 1508 1512 1515 1518 1521 1523 1525 1527 1529 1530 1532 1534 1535 1536 1537 1537 1538 1538 1539 1538 1538 1537 1536 1536 1535 1534 1533 1533 1533 1532 1532 1533 1533 1533 1533 1534 1534 1535
1489 1492 1495 1499 1502 1506 1509 1512 1515 1518 1521 1523 1525 1526 1528 1530 1531 1532 1533 1534 1535 1536 1536 1537 1536 1536 1535 1535 1534 1533 1532 1531 1531 1530 1530 1530 1531 1531 1531 1531 1532 1532 1533
1488 1491 1493 1496 1499 1502 1506 1509 1512 1514 1517 1520 1522 1524 1526 1527 1529 1530 1531 1532 1533 1534 1534 1534 1534 1534 1534 1533 1532 1532 1531 1530 1529 1529 1529 1529 1529 1529 1529 1530 1530 1530 1531
1487 1490 1492 1494 1497 1500 1503 1507 1509 1511 1514 1517 1519 1521 1523 1524 1526 1527 1528 1529 1530 1531 1532 1532 1532 1532 1532 1532 1531 1531 1530 1529 1528 1528 1528 1527 1527 1527 1527 1528 1528 1529 1529
1485 1488 1490 1492 1495 1498 1501 1504 1506 1509 1511 1514 1516 1517 1520 1522 1523 1525 1526 1527 1528 1529 1529 1530 1530 1530 1530 1530 1530 1529 1529 1528 1527 1527 1527 1526 1526 1526 1526 1526 1526 1527 1527
1484 1486 1488 1491 1493 1496 1499 1502 1504 1506 1508 1511 1513 1515 1517 1519 1520 1522 1523 1524 1525 1526 1527 1527 1527 1528 1528 1528 1528 1528 1527 1527 1526 1526 1525 1525 1525 1524 1524 1524 1525 1525 1526
1482 1484 1486 1489 1491 1493 1496 1499 1502 1504 1506 1508 1510 1512 1514 1516 1517 1518 1519 1520 1522 1523 1524 1524 1524 1525 1525 1525 1525 1525 1525 1525 1525 1524 1524 1524 1523 1523 1523 1523 1523 1524 1524
1481 1483 1485 1486 1488 1491 1493 1497 1500 1502 1504 1506 1507 1509 1511 1513 1514 1515 1516 1518 1519 1520 1520 1521 1521 1522 1522 1523 1523 1523 1523 1523 1523 1522 1522 1522 1522 1522 1522 1521 1521 1522 1523
1479 1481 1483 1485 1486 1489 1492 1495 1498 1499 1501 1502 1504 1506 1508 1509 1511 1512 1513 1514 1515 1516 1517 1517 1518 1519 1519 1520 1520 1521 1521 1520 1520 1520 1520 1520 1520 1520 1520 1520 1520 1520 1521
1479 1480 1482 1484 1485 1487 1490 1492 1495 1497 1498 1499 1501 1503 1505 1506 1507 1508 1509 1510 1512 1513 1513 1514 1515 1515 1516 1516 1517 1518 1518 1518 1518 1518 1517 1517 1517 1517 1518 1518 1518 1519 1519
1478 1480 1481 1483 1485 1486 1488 1490 1491 1493 1494 1496 1498 1500 1501 1503 1504 1505 1506 1507 1508 1509 1510 1511 1511 1512 1512 1513 1514 1515 1514 1515 1515 1515 1515 1514 1514 1515 1515 1515 1516 1516 1517
1477 1478 1480 1482 1483 1485 1486 1488 1489 1490 1492 1494 1496 1497 1498 1499 1500 1501 1503 1504 1505 1506 1506 1507 1508 1508 1509 1509 1510 1510 1511 1511 1511 1512 1512 1511 1511 1512 1512 1512 1513 1514 1515
1476 1477 1478 1480 1482 1484 1484 1485 1487 1488 1490 1491 1492 1493 1495 1496 1497 1498 1499 1500 1501 1502 1502 1503 1503 1504 1505 1506 1506 1507 1508 1508 1508 1508 1508 1508 1508 1508 1509 1509 1510 1511 1512
1476 1476 1478 1480 1481 1482 1483 1484 1485 1486 1487 1488 1489 1490 1491 1492 1493 1494 1495 1496 1497 1498 1498 1499 1499 1500 1501 1501 1502 1503 1503 1504 1504 1504 1504 1505 1505 1505 1505 1506 1507 1507 1508
1476 1476 1477 1478 1479 1480 1481 1481 1482 1483 1484 1485 1485 1487 1487 1488 1489 1490 1491 1491 1492 1493 1494 1495 1495 1495 1496 1497 1498 1498 1499 1499 1499 1500 1500 1501 1501 1501 1501 1502 1503 1503 1504
1475 1476 1476 1476 1476 1477 1478 1480 1480 1481 1481 1481 1481 1482 1483 1484 1484 1485 1486 1487 1488 1489 1489 1490 1490 1491 1491 1492 1493 1493 1494 1494 1495 1495 1495 1495 1496 1496 1497 1497 1498 1499 1499
1473 1474 1474 1474 1474 1475 1476 1476 1476 1477 1477 1477 1478 1478 1479 1480 1480 1481 1482 1482 1483 1484 1485 1485 1486 1486 1488 1488 1488 1489 1490 1490 1490 1490 1490 1490 1491 1491 1492 1492 1493 1493 1494